owner,sensor,date,latitude,longitude,vertical_datum,mass_concentration_of_oxygen_in_sea_water,qcFlag 
DISL,ioos:station:DISL:CATA:1,2011-08-01T00:00:00Z,30.3085,-88.1395,2.281,5.22,1111122 
DISL,ioos:station:DISL:CATA:1,2011-08-01T00:30:00Z,30.3085,-88.1395,2.222,5.69,1111122 
DISL,ioos:station:DISL:CATA:1,2011-08-01T01:00:00Z,30.3085,-88.1395,2.227,5.7,1111122 
DISL,ioos:station:DISL:CATA:1,2011-08-01T01:30:00Z,30.3085,-88.1395,2.221,5.98,1111122 
DISL,ioos:station:DISL:CATA:1,2011-08-01T02:00:00Z,30.3085,-88.1395,2.219,6.0,1111122 
DISL,ioos:station:DISL:CATA:1,2011-08-01T02:30:00Z,30.3085,-88.1395,2.198,5.78,1111122 
DISL,ioos:station:DISL:CATA:1,2011-08-01T03:00:00Z,30.3085,-88.1395,2.197,5.71,1111122 
DISL,ioos:station:DISL:CATA:1,2011-08-01T03:30:00Z,30.3085,-88.1395,2.239,5.54,1111122 
DISL,ioos:station:DISL:CATA:1,2011-08-01T04:00:00Z,30.3085,-88.1395,2.236,5.33,1111122 
DISL,ioos:station:DISL:CATA:1,2011-08-01T04:30:00Z,30.3085,-88.1395,2.25,5.12,1111122 
DISL,ioos:station:DISL:CATA:1,2011-08-01T05:00:00Z,30.3085,-88.1395,2.257,4.15,1111122 
DISL,ioos:station:DISL:CATA:1,2011-08-01T05:30:00Z,30.3085,-88.1395,2.272,4.28,1111122 
DISL,ioos:station:DISL:CATA:1,2011-08-01T06:00:00Z,30.3085,-88.1395,2.304,4.92,1111122 
DISL,ioos:station:DISL:CATA:1,2011-08-01T06:30:00Z,30.3085,-88.1395,2.334,5.55,1111122 
DISL,ioos:station:DISL:CATA:1,2011-08-01T07:00:00Z,30.3085,-88.1395,2.328,5.72,1111122 
DISL,ioos:station:DISL:CATA:1,2011-08-01T07:30:00Z,30.3085,-88.1395,2.349,5.7,1111122 
DISL,ioos:station:DISL:CATA:1,2011-08-01T08:00:00Z,30.3085,-88.1395,2.362,5.54,1111122 
DISL,ioos:station:DISL:CATA:1,2011-08-01T08:30:00Z,30.3085,-88.1395,2.363,5.14,1111122 
DISL,ioos:station:DISL:CATA:1,2011-08-01T09:00:00Z,30.3085,-88.1395,2.373,5.24,1111122 
DISL,ioos:station:DISL:CATA:1,2011-08-01T09:30:00Z,30.3085,-88.1395,2.373,5.06,1111122 
DISL,ioos:station:DISL:CATA:1,2011-08-01T10:00:00Z,30.3085,-88.1395,2.39,4.86,1111122 
DISL,ioos:station:DISL:CATA:1,2011-08-01T10:30:00Z,30.3085,-88.1395,2.394,4.23,1111122 
DISL,ioos:station:DISL:CATA:1,2011-08-01T11:00:00Z,30.3085,-88.1395,2.419,4.03,1111122 
DISL,ioos:station:DISL:CATA:1,2011-08-01T11:30:00Z,30.3085,-88.1395,2.458,4.37,1111122 
DISL,ioos:station:DISL:CATA:1,2011-08-01T12:00:00Z,30.3085,-88.1395,2.496,4.6,1111122 
DISL,ioos:station:DISL:CATA:1,2011-08-01T12:30:00Z,30.3085,-88.1395,2.516,4.9,1111122 
DISL,ioos:station:DISL:CATA:1,2011-08-01T13:00:00Z,30.3085,-88.1395,2.527,4.94,1111122 
DISL,ioos:station:DISL:CATA:1,2011-08-01T13:30:00Z,30.3085,-88.1395,2.55,5.74,1111122 
DISL,ioos:station:DISL:CATA:1,2011-08-01T14:00:00Z,30.3085,-88.1395,2.566,5.8,1111122 
DISL,ioos:station:DISL:CATA:1,2011-08-01T14:30:00Z,30.3085,-88.1395,2.577,5.65,1111122 
DISL,ioos:station:DISL:CATA:1,2011-08-01T15:00:00Z,30.3085,-88.1395,2.593,5.81,1111122 
DISL,ioos:station:DISL:CATA:1,2011-08-01T15:30:00Z,30.3085,-88.1395,2.614,5.94,1111122 
DISL,ioos:station:DISL:CATA:1,2011-08-01T16:00:00Z,30.3085,-88.1395,2.62,6.09,1111122 
DISL,ioos:station:DISL:CATA:1,2011-08-01T16:30:00Z,30.3085,-88.1395,2.621,6.24,1111122 
DISL,ioos:station:DISL:CATA:1,2011-08-01T17:00:00Z,30.3085,-88.1395,2.63,6.38,1111122 
DISL,ioos:station:DISL:CATA:1,2011-08-01T17:30:00Z,30.3085,-88.1395,2.629,6.49,1111122 
DISL,ioos:station:DISL:CATA:1,2011-08-01T18:00:00Z,30.3085,-88.1395,2.632,6.63,1111122 
DISL,ioos:station:DISL:CATA:1,2011-08-01T18:30:00Z,30.3085,-88.1395,2.619,6.91,1111122 
DISL,ioos:station:DISL:CATA:1,2011-08-01T19:00:00Z,30.3085,-88.1395,2.619,7.11,1111122 
DISL,ioos:station:DISL:CATA:1,2011-08-01T19:30:00Z,30.3085,-88.1395,2.61,7.16,1111122 
DISL,ioos:station:DISL:CATA:1,2011-08-01T20:00:00Z,30.3085,-88.1395,2.547,6.91,1111122 
DISL,ioos:station:DISL:CATA:1,2011-08-01T20:30:00Z,30.3085,-88.1395,2.511,7.17,1111122 
DISL,ioos:station:DISL:CATA:1,2011-08-01T21:00:00Z,30.3085,-88.1395,2.497,6.84,1111122 
DISL,ioos:station:DISL:CATA:1,2011-08-01T21:30:00Z,30.3085,-88.1395,2.477,6.4,1111122 
DISL,ioos:station:DISL:CATA:1,2011-08-01T22:00:00Z,30.3085,-88.1395,2.448,6.65,1111122 
DISL,ioos:station:DISL:CATA:1,2011-08-01T22:30:00Z,30.3085,-88.1395,2.403,6.82,1111122 
DISL,ioos:station:DISL:CATA:1,2011-08-01T23:00:00Z,30.3085,-88.1395,2.378,6.36,1111122 
DISL,ioos:station:DISL:CATA:1,2011-08-01T23:30:00Z,30.3085,-88.1395,2.37,6.25,1111122 
DISL,ioos:station:DISL:CATA:1,2011-08-02T00:00:00Z,30.3085,-88.1395,2.348,6.26,1111122 
DISL,ioos:station:DISL:CATA:1,2011-08-02T00:30:00Z,30.3085,-88.1395,2.315,6.1,1111122 
DISL,ioos:station:DISL:CATA:1,2011-08-02T01:00:00Z,30.3085,-88.1395,2.291,5.43,1111122 
DISL,ioos:station:DISL:CATA:1,2011-08-02T01:30:00Z,30.3085,-88.1395,2.293,5.06,1111122 
DISL,ioos:station:DISL:CATA:1,2011-08-02T02:00:00Z,30.3085,-88.1395,2.289,4.79,1111122 
DISL,ioos:station:DISL:CATA:1,2011-08-02T02:30:00Z,30.3085,-88.1395,2.285,4.67,1111122 
DISL,ioos:station:DISL:CATA:1,2011-08-02T03:00:00Z,30.3085,-88.1395,2.28,4.06,1111122 
DISL,ioos:station:DISL:CATA:1,2011-08-02T03:30:00Z,30.3085,-88.1395,2.297,3.72,1111122 
DISL,ioos:station:DISL:CATA:1,2011-08-02T04:00:00Z,30.3085,-88.1395,2.275,4.01,1111122 
DISL,ioos:station:DISL:CATA:1,2011-08-02T04:30:00Z,30.3085,-88.1395,2.272,3.24,1111122 
DISL,ioos:station:DISL:CATA:1,2011-08-02T05:00:00Z,30.3085,-88.1395,2.287,2.41,1111122 
DISL,ioos:station:DISL:CATA:1,2011-08-02T05:30:00Z,30.3085,-88.1395,2.273,2.7,1111122 
DISL,ioos:station:DISL:CATA:1,2011-08-02T06:00:00Z,30.3085,-88.1395,2.309,2.82,1111122 
DISL,ioos:station:DISL:CATA:1,2011-08-02T06:30:00Z,30.3085,-88.1395,2.318,2.29,1111122 
DISL,ioos:station:DISL:CATA:1,2011-08-02T07:00:00Z,30.3085,-88.1395,2.354,2.3,1111122 
DISL,ioos:station:DISL:CATA:1,2011-08-02T07:30:00Z,30.3085,-88.1395,2.372,4.03,1111122 
DISL,ioos:station:DISL:CATA:1,2011-08-02T08:00:00Z,30.3085,-88.1395,2.363,4.18,1111122 
DISL,ioos:station:DISL:CATA:1,2011-08-02T08:30:00Z,30.3085,-88.1395,2.374,4.06,1111122 
DISL,ioos:station:DISL:CATA:1,2011-08-02T09:00:00Z,30.3085,-88.1395,2.39,3.92,1111122 
DISL,ioos:station:DISL:CATA:1,2011-08-02T09:30:00Z,30.3085,-88.1395,2.388,4.2,1111122 
DISL,ioos:station:DISL:CATA:1,2011-08-02T10:00:00Z,30.3085,-88.1395,2.395,4.41,1111122 
DISL,ioos:station:DISL:CATA:1,2011-08-02T10:30:00Z,30.3085,-88.1395,2.383,4.53,1111122 
DISL,ioos:station:DISL:CATA:1,2011-08-02T11:00:00Z,30.3085,-88.1395,2.386,4.42,1111122 
DISL,ioos:station:DISL:CATA:1,2011-08-02T11:30:00Z,30.3085,-88.1395,2.382,4.1,1111122 
DISL,ioos:station:DISL:CATA:1,2011-08-02T12:00:00Z,30.3085,-88.1395,2.382,3.82,1111122 
DISL,ioos:station:DISL:CATA:1,2011-08-02T12:30:00Z,30.3085,-88.1395,2.396,4.07,1111122 
DISL,ioos:station:DISL:CATA:1,2011-08-02T13:00:00Z,30.3085,-88.1395,2.407,4.07,1111122 
DISL,ioos:station:DISL:CATA:1,2011-08-02T13:30:00Z,30.3085,-88.1395,2.423,4.11,1111122 
DISL,ioos:station:DISL:CATA:1,2011-08-02T14:00:00Z,30.3085,-88.1395,2.443,4.52,1111122 
DISL,ioos:station:DISL:CATA:1,2011-08-02T14:30:00Z,30.3085,-88.1395,2.457,4.78,1111122 
DISL,ioos:station:DISL:CATA:1,2011-08-02T15:00:00Z,30.3085,-88.1395,2.477,4.96,1111122 
DISL,ioos:station:DISL:CATA:1,2011-08-02T15:30:00Z,30.3085,-88.1395,2.492,5.27,1111122 
DISL,ioos:station:DISL:CATA:1,2011-08-02T16:00:00Z,30.3085,-88.1395,2.513,5.82,1111122 
DISL,ioos:station:DISL:CATA:1,2011-08-02T16:30:00Z,30.3085,-88.1395,2.524,6.07,1111122 
DISL,ioos:station:DISL:CATA:1,2011-08-02T17:00:00Z,30.3085,-88.1395,2.519,6.52,1111122 
DISL,ioos:station:DISL:CATA:1,2011-08-02T17:30:00Z,30.3085,-88.1395,2.512,6.57,1111122 
DISL,ioos:station:DISL:CATA:1,2011-08-02T18:00:00Z,30.3085,-88.1395,2.499,6.73,1111122 
DISL,ioos:station:DISL:CATA:1,2011-08-02T18:30:00Z,30.3085,-88.1395,2.503,6.67,1111122 
DISL,ioos:station:DISL:CATA:1,2011-08-02T19:00:00Z,30.3085,-88.1395,2.501,6.67,1111122 
DISL,ioos:station:DISL:CATA:1,2011-08-02T19:30:00Z,30.3085,-88.1395,2.49,5.94,1111122 
DISL,ioos:station:DISL:CATA:1,2011-08-02T20:00:00Z,30.3085,-88.1395,2.493,5.93,1111122 
DISL,ioos:station:DISL:CATA:1,2011-08-02T20:30:00Z,30.3085,-88.1395,2.501,6.1,1111122 
DISL,ioos:station:DISL:CATA:1,2011-08-02T21:00:00Z,30.3085,-88.1395,2.501,7.18,1111122 
DISL,ioos:station:DISL:CATA:1,2011-08-02T21:30:00Z,30.3085,-88.1395,2.5,7.38,1111122 
DISL,ioos:station:DISL:CATA:1,2011-08-02T22:00:00Z,30.3085,-88.1395,2.482,6.98,1111122 
DISL,ioos:station:DISL:CATA:1,2011-08-02T22:30:00Z,30.3085,-88.1395,2.433,7.07,1111122 
DISL,ioos:station:DISL:CATA:1,2011-08-02T23:00:00Z,30.3085,-88.1395,2.404,6.97,1111122 
DISL,ioos:station:DISL:CATA:1,2011-08-02T23:30:00Z,30.3085,-88.1395,2.384,6.68,1111122 
DISL,ioos:station:DISL:CATA:1,2011-08-03T00:00:00Z,30.3085,-88.1395,2.36,6.73,1111122 
DISL,ioos:station:DISL:CATA:1,2011-08-03T00:30:00Z,30.3085,-88.1395,2.35,7.17,1111122 
DISL,ioos:station:DISL:CATA:1,2011-08-03T01:00:00Z,30.3085,-88.1395,2.345,6.68,1111122 
DISL,ioos:station:DISL:CATA:1,2011-08-03T01:30:00Z,30.3085,-88.1395,2.354,6.18,1111122 
DISL,ioos:station:DISL:CATA:1,2011-08-03T02:00:00Z,30.3085,-88.1395,2.353,5.45,1111122 
DISL,ioos:station:DISL:CATA:1,2011-08-03T02:30:00Z,30.3085,-88.1395,2.376,4.29,1111122 
DISL,ioos:station:DISL:CATA:1,2011-08-03T03:00:00Z,30.3085,-88.1395,2.399,3.67,1111122 
DISL,ioos:station:DISL:CATA:1,2011-08-03T03:30:00Z,30.3085,-88.1395,2.414,3.51,1111122 
DISL,ioos:station:DISL:CATA:1,2011-08-03T04:00:00Z,30.3085,-88.1395,2.403,3.03,1111122 
DISL,ioos:station:DISL:CATA:1,2011-08-03T04:30:00Z,30.3085,-88.1395,2.413,4.24,1111122 
DISL,ioos:station:DISL:CATA:1,2011-08-03T05:00:00Z,30.3085,-88.1395,2.398,5.47,1111122 
DISL,ioos:station:DISL:CATA:1,2011-08-03T05:30:00Z,30.3085,-88.1395,2.403,5.28,1111122 
DISL,ioos:station:DISL:CATA:1,2011-08-03T06:00:00Z,30.3085,-88.1395,2.407,5.48,1111122 
DISL,ioos:station:DISL:CATA:1,2011-08-03T06:30:00Z,30.3085,-88.1395,2.406,5.57,1111122 
DISL,ioos:station:DISL:CATA:1,2011-08-03T07:00:00Z,30.3085,-88.1395,2.398,5.49,1111122 
DISL,ioos:station:DISL:CATA:1,2011-08-03T07:30:00Z,30.3085,-88.1395,2.412,5.12,1111122 
DISL,ioos:station:DISL:CATA:1,2011-08-03T08:00:00Z,30.3085,-88.1395,2.423,5.22,1111122 
DISL,ioos:station:DISL:CATA:1,2011-08-03T08:30:00Z,30.3085,-88.1395,2.438,5.0,1111122 
DISL,ioos:station:DISL:CATA:1,2011-08-03T09:00:00Z,30.3085,-88.1395,2.443,5.27,1111122 
DISL,ioos:station:DISL:CATA:1,2011-08-03T09:30:00Z,30.3085,-88.1395,2.455,5.58,1111122 
DISL,ioos:station:DISL:CATA:1,2011-08-03T10:00:00Z,30.3085,-88.1395,2.451,5.51,1111122 
DISL,ioos:station:DISL:CATA:1,2011-08-03T10:30:00Z,30.3085,-88.1395,2.443,5.37,1111122 
DISL,ioos:station:DISL:CATA:1,2011-08-03T11:00:00Z,30.3085,-88.1395,2.413,5.21,1111122 
DISL,ioos:station:DISL:CATA:1,2011-08-03T11:30:00Z,30.3085,-88.1395,2.399,5.64,1111122 
DISL,ioos:station:DISL:CATA:1,2011-08-03T12:00:00Z,30.3085,-88.1395,2.379,5.51,1111122 
DISL,ioos:station:DISL:CATA:1,2011-08-03T12:30:00Z,30.3085,-88.1395,2.358,5.23,1111122 
DISL,ioos:station:DISL:CATA:1,2011-08-03T13:00:00Z,30.3085,-88.1395,2.358,4.98,1111122 
DISL,ioos:station:DISL:CATA:1,2011-08-03T13:30:00Z,30.3085,-88.1395,2.365,4.67,1111122 
DISL,ioos:station:DISL:CATA:1,2011-08-03T14:00:00Z,30.3085,-88.1395,2.366,4.47,1111122 
DISL,ioos:station:DISL:CATA:1,2011-08-03T14:30:00Z,30.3085,-88.1395,2.381,5.02,1111122 
DISL,ioos:station:DISL:CATA:1,2011-08-03T15:00:00Z,30.3085,-88.1395,2.389,5.11,1111122 
DISL,ioos:station:DISL:CATA:1,2011-08-03T15:30:00Z,30.3085,-88.1395,2.41,5.13,1111122 
DISL,ioos:station:DISL:CATA:1,2011-08-03T16:00:00Z,30.3085,-88.1395,2.417,4.89,1111122 
DISL,ioos:station:DISL:CATA:1,2011-08-03T16:30:00Z,30.3085,-88.1395,2.434,4.87,1111122 
DISL,ioos:station:DISL:CATA:1,2011-08-03T17:00:00Z,30.3085,-88.1395,2.424,5.7,1111122 
DISL,ioos:station:DISL:CATA:1,2011-08-03T17:30:00Z,30.3085,-88.1395,2.418,7.44,1111122 
DISL,ioos:station:DISL:CATA:1,2011-08-03T18:00:00Z,30.3085,-88.1395,2.411,7.02,1111122 
DISL,ioos:station:DISL:CATA:1,2011-08-03T18:30:00Z,30.3085,-88.1395,2.406,7.05,1111122 
DISL,ioos:station:DISL:CATA:1,2011-08-03T19:00:00Z,30.3085,-88.1395,2.406,7.67,1111122 
DISL,ioos:station:DISL:CATA:1,2011-08-03T19:30:00Z,30.3085,-88.1395,2.418,8.03,1111122 
DISL,ioos:station:DISL:CATA:1,2011-08-03T20:00:00Z,30.3085,-88.1395,2.433,7.48,1111122 
DISL,ioos:station:DISL:CATA:1,2011-08-03T20:30:00Z,30.3085,-88.1395,2.435,7.65,1111122 
DISL,ioos:station:DISL:CATA:1,2011-08-03T21:00:00Z,30.3085,-88.1395,2.426,7.26,1111122 
DISL,ioos:station:DISL:CATA:1,2011-08-03T21:30:00Z,30.3085,-88.1395,2.431,7.22,1111122 
DISL,ioos:station:DISL:CATA:1,2011-08-03T22:00:00Z,30.3085,-88.1395,2.426,7.31,1111122 
DISL,ioos:station:DISL:CATA:1,2011-08-03T22:30:00Z,30.3085,-88.1395,2.42,7.39,1111122 
DISL,ioos:station:DISL:CATA:1,2011-08-03T23:00:00Z,30.3085,-88.1395,2.416,7.36,1111122 
DISL,ioos:station:DISL:CATA:1,2011-08-03T23:30:00Z,30.3085,-88.1395,2.415,7.29,1111122 
DISL,ioos:station:DISL:CATA:1,2011-08-04T00:00:00Z,30.3085,-88.1395,2.399,7.09,1111122 
DISL,ioos:station:DISL:CATA:1,2011-08-04T00:30:00Z,30.3085,-88.1395,2.397,6.88,1111122 
DISL,ioos:station:DISL:CATA:1,2011-08-04T01:00:00Z,30.3085,-88.1395,2.394,6.47,1111122 
DISL,ioos:station:DISL:CATA:1,2011-08-04T01:30:00Z,30.3085,-88.1395,2.395,5.97,1111122 
DISL,ioos:station:DISL:CATA:1,2011-08-04T02:00:00Z,30.3085,-88.1395,2.419,6.76,1111122 
DISL,ioos:station:DISL:CATA:1,2011-08-04T02:30:00Z,30.3085,-88.1395,2.436,6.34,1111122 
DISL,ioos:station:DISL:CATA:1,2011-08-04T03:00:00Z,30.3085,-88.1395,2.446,6.39,1111122 
DISL,ioos:station:DISL:CATA:1,2011-08-04T03:30:00Z,30.3085,-88.1395,2.459,6.35,1111122 
DISL,ioos:station:DISL:CATA:1,2011-08-04T04:00:00Z,30.3085,-88.1395,2.47,6.55,1111122 
DISL,ioos:station:DISL:CATA:1,2011-08-04T04:30:00Z,30.3085,-88.1395,2.479,6.67,1111122 
DISL,ioos:station:DISL:CATA:1,2011-08-04T05:00:00Z,30.3085,-88.1395,2.481,6.69,1111122 
DISL,ioos:station:DISL:CATA:1,2011-08-04T05:30:00Z,30.3085,-88.1395,2.485,6.63,1111122 
DISL,ioos:station:DISL:CATA:1,2011-08-04T06:00:00Z,30.3085,-88.1395,2.495,6.48,1111122 
DISL,ioos:station:DISL:CATA:1,2011-08-04T06:30:00Z,30.3085,-88.1395,2.5,6.36,1111122 
DISL,ioos:station:DISL:CATA:1,2011-08-04T07:00:00Z,30.3085,-88.1395,2.503,6.23,1111122 
DISL,ioos:station:DISL:CATA:1,2011-08-04T07:30:00Z,30.3085,-88.1395,2.508,6.08,1111122 
DISL,ioos:station:DISL:CATA:1,2011-08-04T08:00:00Z,30.3085,-88.1395,2.51,5.94,1111122 
DISL,ioos:station:DISL:CATA:1,2011-08-04T08:30:00Z,30.3085,-88.1395,2.514,5.8,1111122 
DISL,ioos:station:DISL:CATA:1,2011-08-04T09:00:00Z,30.3085,-88.1395,2.529,5.62,1111122 
DISL,ioos:station:DISL:CATA:1,2011-08-04T09:30:00Z,30.3085,-88.1395,2.53,5.52,1111122 
DISL,ioos:station:DISL:CATA:1,2011-08-04T10:00:00Z,30.3085,-88.1395,2.524,5.49,1111122 
DISL,ioos:station:DISL:CATA:1,2011-08-04T10:30:00Z,30.3085,-88.1395,2.508,5.4,1111122 
DISL,ioos:station:DISL:CATA:1,2011-08-04T11:00:00Z,30.3085,-88.1395,2.498,5.62,1111122 
DISL,ioos:station:DISL:CATA:1,2011-08-04T11:30:00Z,30.3085,-88.1395,2.473,5.62,1111122 
DISL,ioos:station:DISL:CATA:1,2011-08-04T12:00:00Z,30.3085,-88.1395,2.471,5.43,1111122 
DISL,ioos:station:DISL:CATA:1,2011-08-04T12:30:00Z,30.3085,-88.1395,2.441,4.9,1111122 
DISL,ioos:station:DISL:CATA:1,2011-08-04T13:00:00Z,30.3085,-88.1395,2.409,5.49,1111122 
DISL,ioos:station:DISL:CATA:1,2011-08-04T13:30:00Z,30.3085,-88.1395,2.395,2.72,1111122 
DISL,ioos:station:DISL:CATA:1,2011-08-04T14:00:00Z,30.3085,-88.1395,2.382,2.28,1111122 
DISL,ioos:station:DISL:CATA:1,2011-08-04T14:30:00Z,30.3085,-88.1395,2.366,2.5,1111122 
DISL,ioos:station:DISL:CATA:1,2011-08-04T15:00:00Z,30.3085,-88.1395,2.352,2.69,1111122 
DISL,ioos:station:DISL:CATA:1,2011-08-04T15:30:00Z,30.3085,-88.1395,2.347,3.24,1111122 
DISL,ioos:station:DISL:CATA:1,2011-08-04T16:00:00Z,30.3085,-88.1395,2.339,3.95,1111122 
DISL,ioos:station:DISL:CATA:1,2011-08-04T16:30:00Z,30.3085,-88.1395,2.325,5.18,1111122 
DISL,ioos:station:DISL:CATA:1,2011-08-04T17:00:00Z,30.3085,-88.1395,2.335,5.94,1111122 
DISL,ioos:station:DISL:CATA:1,2011-08-04T17:30:00Z,30.3085,-88.1395,2.323,5.68,1111122 
DISL,ioos:station:DISL:CATA:1,2011-08-04T18:00:00Z,30.3085,-88.1395,2.331,5.87,1111122 
DISL,ioos:station:DISL:CATA:1,2011-08-04T18:30:00Z,30.3085,-88.1395,2.329,5.74,1111122 
DISL,ioos:station:DISL:CATA:1,2011-08-04T19:00:00Z,30.3085,-88.1395,2.316,6.33,1111122 
DISL,ioos:station:DISL:CATA:1,2011-08-04T19:30:00Z,30.3085,-88.1395,2.294,6.92,1111122 
DISL,ioos:station:DISL:CATA:1,2011-08-04T20:00:00Z,30.3085,-88.1395,2.289,6.85,1111122 
DISL,ioos:station:DISL:CATA:1,2011-08-04T20:30:00Z,30.3085,-88.1395,2.288,7.06,1111122 
DISL,ioos:station:DISL:CATA:1,2011-08-04T21:00:00Z,30.3085,-88.1395,2.288,7.13,1111122 
DISL,ioos:station:DISL:CATA:1,2011-08-04T21:30:00Z,30.3085,-88.1395,2.307,7.31,1111122 
DISL,ioos:station:DISL:CATA:1,2011-08-04T22:00:00Z,30.3085,-88.1395,2.327,7.44,1111122 
DISL,ioos:station:DISL:CATA:1,2011-08-04T22:30:00Z,30.3085,-88.1395,2.327,7.49,1111122 
DISL,ioos:station:DISL:CATA:1,2011-08-04T23:00:00Z,30.3085,-88.1395,2.33,7.35,1111122 
DISL,ioos:station:DISL:CATA:1,2011-08-04T23:30:00Z,30.3085,-88.1395,2.352,7.14,1111122 
DISL,ioos:station:DISL:CATA:1,2011-08-05T00:00:00Z,30.3085,-88.1395,2.34,7.05,1111122 
DISL,ioos:station:DISL:CATA:1,2011-08-05T00:30:00Z,30.3085,-88.1395,2.355,6.88,1111122 
DISL,ioos:station:DISL:CATA:1,2011-08-05T01:00:00Z,30.3085,-88.1395,2.385,6.54,1111122 
DISL,ioos:station:DISL:CATA:1,2011-08-05T01:30:00Z,30.3085,-88.1395,2.399,6.12,1111122 
DISL,ioos:station:DISL:CATA:1,2011-08-05T02:00:00Z,30.3085,-88.1395,2.416,5.71,1111122 
DISL,ioos:station:DISL:CATA:1,2011-08-05T02:30:00Z,30.3085,-88.1395,2.426,5.59,1111122 
DISL,ioos:station:DISL:CATA:1,2011-08-05T03:00:00Z,30.3085,-88.1395,2.442,5.34,1111122 
DISL,ioos:station:DISL:CATA:1,2011-08-05T03:30:00Z,30.3085,-88.1395,2.483,5.25,1111122 
DISL,ioos:station:DISL:CATA:1,2011-08-05T04:00:00Z,30.3085,-88.1395,2.488,5.57,1111122 
DISL,ioos:station:DISL:CATA:1,2011-08-05T04:30:00Z,30.3085,-88.1395,2.487,5.45,1111122 
DISL,ioos:station:DISL:CATA:1,2011-08-05T05:00:00Z,30.3085,-88.1395,2.559,5.39,1111122 
DISL,ioos:station:DISL:CATA:1,2011-08-05T05:30:00Z,30.3085,-88.1395,2.574,5.63,1111122 
DISL,ioos:station:DISL:CATA:1,2011-08-05T06:00:00Z,30.3085,-88.1395,2.457,5.33,1111122 
DISL,ioos:station:DISL:CATA:1,2011-08-05T06:30:00Z,30.3085,-88.1395,2.363,5.08,1111122 
DISL,ioos:station:DISL:CATA:1,2011-08-05T07:00:00Z,30.3085,-88.1395,2.346,4.91,1111122 
DISL,ioos:station:DISL:CATA:1,2011-08-05T07:30:00Z,30.3085,-88.1395,2.391,4.96,1111122 
DISL,ioos:station:DISL:CATA:1,2011-08-05T08:00:00Z,30.3085,-88.1395,2.38,4.91,1111122 
DISL,ioos:station:DISL:CATA:1,2011-08-05T08:30:00Z,30.3085,-88.1395,2.375,4.54,1111122 
DISL,ioos:station:DISL:CATA:1,2011-08-05T09:00:00Z,30.3085,-88.1395,2.45,4.8,1111122 
DISL,ioos:station:DISL:CATA:1,2011-08-05T09:30:00Z,30.3085,-88.1395,2.502,4.95,1111122 
DISL,ioos:station:DISL:CATA:1,2011-08-05T10:00:00Z,30.3085,-88.1395,2.508,4.87,1111122 
DISL,ioos:station:DISL:CATA:1,2011-08-05T10:30:00Z,30.3085,-88.1395,2.563,4.84,1111122 
DISL,ioos:station:DISL:CATA:1,2011-08-05T11:00:00Z,30.3085,-88.1395,2.605,5.03,1111122 
DISL,ioos:station:DISL:CATA:1,2011-08-05T11:30:00Z,30.3085,-88.1395,2.613,5.16,1111122 
DISL,ioos:station:DISL:CATA:1,2011-08-05T12:00:00Z,30.3085,-88.1395,2.592,5.22,1111122 
DISL,ioos:station:DISL:CATA:1,2011-08-05T12:30:00Z,30.3085,-88.1395,2.515,5.13,1111122 
DISL,ioos:station:DISL:CATA:1,2011-08-05T13:00:00Z,30.3085,-88.1395,2.462,4.9,1111122 
DISL,ioos:station:DISL:CATA:1,2011-08-05T13:30:00Z,30.3085,-88.1395,2.428,4.34,1111122 
DISL,ioos:station:DISL:CATA:1,2011-08-05T14:00:00Z,30.3085,-88.1395,2.366,5.15,1111122 
DISL,ioos:station:DISL:CATA:1,2011-08-05T14:30:00Z,30.3085,-88.1395,2.353,5.2,1111122 
DISL,ioos:station:DISL:CATA:1,2011-08-05T15:00:00Z,30.3085,-88.1395,2.341,5.25,1111122 
DISL,ioos:station:DISL:CATA:1,2011-08-05T15:30:00Z,30.3085,-88.1395,2.302,5.11,1111122 
DISL,ioos:station:DISL:CATA:1,2011-08-05T16:00:00Z,30.3085,-88.1395,2.296,5.15,1111122 
DISL,ioos:station:DISL:CATA:1,2011-08-05T16:30:00Z,30.3085,-88.1395,2.28,5.2,1111122 
DISL,ioos:station:DISL:CATA:1,2011-08-05T17:00:00Z,30.3085,-88.1395,2.272,5.25,1111122 
DISL,ioos:station:DISL:CATA:1,2011-08-05T17:30:00Z,30.3085,-88.1395,2.251,5.49,1111122 
DISL,ioos:station:DISL:CATA:1,2011-08-05T18:00:00Z,30.3085,-88.1395,2.23,5.52,1111122 
DISL,ioos:station:DISL:CATA:1,2011-08-05T18:30:00Z,30.3085,-88.1395,2.207,5.8,1111122 
DISL,ioos:station:DISL:CATA:1,2011-08-05T19:00:00Z,30.3085,-88.1395,2.197,5.82,1111122 
DISL,ioos:station:DISL:CATA:1,2011-08-05T19:30:00Z,30.3085,-88.1395,2.199,6.03,1111122 
DISL,ioos:station:DISL:CATA:1,2011-08-05T20:00:00Z,30.3085,-88.1395,2.207,6.18,1111122 
DISL,ioos:station:DISL:CATA:1,2011-08-05T20:30:00Z,30.3085,-88.1395,2.209,6.24,1111122 
DISL,ioos:station:DISL:CATA:1,2011-08-05T21:00:00Z,30.3085,-88.1395,2.225,6.4,1111122 
DISL,ioos:station:DISL:CATA:1,2011-08-05T21:30:00Z,30.3085,-88.1395,2.252,6.5,1111122 
DISL,ioos:station:DISL:CATA:1,2011-08-05T22:00:00Z,30.3085,-88.1395,2.26,6.54,1111122 
DISL,ioos:station:DISL:CATA:1,2011-08-05T22:30:00Z,30.3085,-88.1395,2.253,6.23,1111122 
DISL,ioos:station:DISL:CATA:1,2011-08-05T23:00:00Z,30.3085,-88.1395,2.282,6.68,1111122 
DISL,ioos:station:DISL:CATA:1,2011-08-05T23:30:00Z,30.3085,-88.1395,2.298,7.43,1111122 
DISL,ioos:station:DISL:CATA:1,2011-08-06T00:00:00Z,30.3085,-88.1395,2.317,7.48,1111122 
DISL,ioos:station:DISL:CATA:1,2011-08-06T00:30:00Z,30.3085,-88.1395,2.333,7.26,1111122 
DISL,ioos:station:DISL:CATA:1,2011-08-06T01:00:00Z,30.3085,-88.1395,2.366,6.89,1111122 
DISL,ioos:station:DISL:CATA:1,2011-08-06T01:30:00Z,30.3085,-88.1395,2.362,6.73,1111122 
DISL,ioos:station:DISL:CATA:1,2011-08-06T02:00:00Z,30.3085,-88.1395,2.376,6.58,1111122 
DISL,ioos:station:DISL:CATA:1,2011-08-06T02:30:00Z,30.3085,-88.1395,2.4,6.37,1111122 
DISL,ioos:station:DISL:CATA:1,2011-08-06T03:00:00Z,30.3085,-88.1395,2.431,6.21,1111122 
DISL,ioos:station:DISL:CATA:1,2011-08-06T03:30:00Z,30.3085,-88.1395,2.451,6.08,1111122 
DISL,ioos:station:DISL:CATA:1,2011-08-06T04:00:00Z,30.3085,-88.1395,2.457,5.97,1111122 
DISL,ioos:station:DISL:CATA:1,2011-08-06T04:30:00Z,30.3085,-88.1395,2.472,5.98,1111122 
DISL,ioos:station:DISL:CATA:1,2011-08-06T05:00:00Z,30.3085,-88.1395,2.499,6.1,1111122 
DISL,ioos:station:DISL:CATA:1,2011-08-06T05:30:00Z,30.3085,-88.1395,2.537,6.24,1111122 
DISL,ioos:station:DISL:CATA:1,2011-08-06T06:00:00Z,30.3085,-88.1395,2.575,6.26,1111122 
DISL,ioos:station:DISL:CATA:1,2011-08-06T06:30:00Z,30.3085,-88.1395,2.606,6.47,1111122 
DISL,ioos:station:DISL:CATA:1,2011-08-06T07:00:00Z,30.3085,-88.1395,2.614,6.34,1111122 
DISL,ioos:station:DISL:CATA:1,2011-08-06T07:30:00Z,30.3085,-88.1395,2.617,7.04,1111122 
DISL,ioos:station:DISL:CATA:1,2011-08-06T08:00:00Z,30.3085,-88.1395,2.634,6.85,1111122 
DISL,ioos:station:DISL:CATA:1,2011-08-06T08:30:00Z,30.3085,-88.1395,2.663,6.76,1111122 
DISL,ioos:station:DISL:CATA:1,2011-08-06T09:00:00Z,30.3085,-88.1395,2.648,6.86,1111122 
DISL,ioos:station:DISL:CATA:1,2011-08-06T09:30:00Z,30.3085,-88.1395,2.666,6.81,1111122 
DISL,ioos:station:DISL:CATA:1,2011-08-06T10:00:00Z,30.3085,-88.1395,2.655,6.7,1111122 
DISL,ioos:station:DISL:CATA:1,2011-08-06T10:30:00Z,30.3085,-88.1395,2.668,6.61,1111122 
DISL,ioos:station:DISL:CATA:1,2011-08-06T11:00:00Z,30.3085,-88.1395,2.643,6.62,1111122 
DISL,ioos:station:DISL:CATA:1,2011-08-06T11:30:00Z,30.3085,-88.1395,2.643,5.99,1111122 
DISL,ioos:station:DISL:CATA:1,2011-08-06T12:00:00Z,30.3085,-88.1395,2.623,5.43,1111122 
DISL,ioos:station:DISL:CATA:1,2011-08-06T12:30:00Z,30.3085,-88.1395,2.593,5.99,1111122 
DISL,ioos:station:DISL:CATA:1,2011-08-06T13:00:00Z,30.3085,-88.1395,2.564,6.17,1111122 
DISL,ioos:station:DISL:CATA:1,2011-08-06T13:30:00Z,30.3085,-88.1395,2.543,5.38,1111122 
DISL,ioos:station:DISL:CATA:1,2011-08-06T14:00:00Z,30.3085,-88.1395,2.502,5.19,1111122 
DISL,ioos:station:DISL:CATA:1,2011-08-06T14:30:00Z,30.3085,-88.1395,2.454,5.99,1111122 
DISL,ioos:station:DISL:CATA:1,2011-08-06T15:00:00Z,30.3085,-88.1395,2.409,6.28,1111122 
DISL,ioos:station:DISL:CATA:1,2011-08-06T15:30:00Z,30.3085,-88.1395,2.363,6.16,1111122 